WB4YDL Weather Reports


time (UTC)temp
F
wind
direction
speed
knots
gust
knots
rain 1hr
in
rain 24hr
in
rain mn
in
humidity
%
barometer
mb
20260505092100 65 212 4.3 7.0 0.00 0.00 0.00 71 1003.4
20260505091556 65 207 2.6 3.5 0.00 0.00 0.00 70 1003.3
20260505091055 65 211 5.2 7.0 0.00 0.00 0.00 70 1003.2
20260505090552 65 164 1.7 2.6 0.00 0.00 0.00 70 1003.2
20260505090050 65 202 3.5 5.2 0.00 0.00 0.00 70 1002.9
20260505085548 65 226 4.3 6.1 0.00 0.00 0.00 70 1002.9
20260505085046 65 213 4.3 7.0 0.00 0.00 0.00 70 1002.9
20260505084543 65 200 4.3 6.1 0.00 0.00 0.00 70 1002.9
20260505084042 65 209 5.2 6.1 0.00 0.00 0.00 70 1002.9
20260505083538 65 204 5.2 9.6 0.00 0.00 0.00 69 1002.9
20260505083035 65 243 3.5 6.1 0.00 0.00 0.00 69 1002.8
20260505082530 65 189 3.5 5.2 0.00 0.00 0.00 69 1003.0
20260505082027 65 209 3.5 6.1 0.00 0.00 0.00 69 1002.7
20260505081524 65 221 1.7 2.6 0.00 0.00 0.00 69 1002.8
20260505081021 65 186 3.5 3.5 0.00 0.00 0.00 69 1002.8
20260505080517 65 175 5.2 6.1 0.00 0.00 0.00 69 1002.7
20260505080014 65 212 4.3 7.0 0.00 0.00 0.00 69 1003.0
20260505075510 65 198 4.3 6.1 0.00 0.00 0.00 68 1002.7
20260505075007 65 213 3.5 6.1 0.00 0.00 0.00 68 1002.7
20260505074504 65 246 2.6 3.5 0.00 0.00 0.00 68 1003.0
20260505074001 65 204 3.5 5.2 0.00 0.00 0.00 68 1002.7
20260505073459 66 185 2.6 3.5 0.00 0.00 0.00 67 1002.8
20260505072956 65 205 4.3 7.0 0.00 0.00 0.00 67 1002.8
20260505072452 65 198 4.3 6.1 0.00 0.00 0.00 68 1002.8
20260505071948 66 187 4.3 6.1 0.00 0.00 0.00 68 1002.8
20260505071444 66 214 5.2 6.1 0.00 0.00 0.00 68 1002.8
20260505070943 66 192 6.1 7.8 0.00 0.00 0.00 67 1002.7
20260505070439 66 201 5.2 6.1 0.00 0.00 0.00 67 1002.7
20260505065935 66 207 4.3 6.1 0.00 0.00 0.00 67 1002.9
20260505065431 66 189 7.0 8.7 0.00 0.00 0.00 67 1003.0
20260505064928 66 199 6.1 8.7 0.00 0.00 0.00 67 1002.9
20260505064425 66 198 4.3 7.0 0.00 0.00 0.00 67 1003.1
20260505063924 66 188 5.2 7.0 0.00 0.00 0.00 67 1003.3
20260505063420 66 219 5.2 6.1 0.00 0.00 0.00 67 1003.7
20260505062916 66 199 3.5 5.2 0.00 0.00 0.00 66 1003.6
20260505062414 66 203 4.3 6.1 0.00 0.00 0.00 67 1004.0
20260505061910 66 237 6.1 7.0 0.00 0.00 0.00 66 1003.9
20260505061409 66 199 3.5 5.2 0.00 0.00 0.00 67 1003.7
20260505060906 66 207 3.5 5.2 0.00 0.00 0.00 66 1003.8
20260505060402 66 234 3.5 6.1 0.00 0.00 0.00 66 1004.0
20260505055858 66 196 5.2 6.1 0.00 0.00 0.00 65 1004.0
20260505055355 66 171 6.1 7.8 0.00 0.00 0.00 66 1004.0
20260505054852 66 216 4.3 5.2 0.00 0.00 0.00 65 1003.8
20260505054349 66 198 7.0 7.8 0.00 0.00 0.00 66 1003.9
20260505053847 66 187 3.5 5.2 0.00 0.00 0.00 66 1003.9
20260505053344 66 187 6.1 7.8 0.00 0.00 0.00 65 1004.1
20260505052841 66 226 4.3 6.1 0.00 0.00 0.00 66 1004.1
20260505052337 66 182 5.2 7.0 0.00 0.00 0.00 65 1004.0
20260505051835 66 202 4.3 5.2 0.00 0.00 0.00 65 1004.1
20260505051332 66 201 7.0 8.7 0.00 0.00 0.00 65 1004.3
20260505050830 66 203 3.5 3.5 0.00 0.00 0.00 65 1004.2
20260505050329 66 195 4.3 6.1 0.00 0.00 0.00 64 1004.1
20260505041758 67 221 2.6 2.6 0.00 0.00 0.00 63 1004.4
20260505041255 68 211 3.5 3.5 0.00 0.00 0.00 62 1004.2
20260505040753 67 242 4.3 6.1 0.00 0.00 0.00 62 1004.3
20260505040250 68 198 2.6 2.6 0.00 0.00 0.00 62 1004.2
20260505035746 68 190 4.3 5.2 0.00 0.00 0.00 62 1004.5
20260505035242 67 198 3.5 3.5 0.00 0.00 0.00 62 1004.5
20260505034739 68 228 4.3 6.1 0.00 0.00 0.00 62 1004.4
20260505034236 67 200 5.2 6.1 0.00 0.00 0.00 62 1004.4
20260505033733 68 208 2.6 3.5 0.00 0.00 0.00 62 1004.3
20260505033231 68 201 2.6 2.6 0.00 0.00 0.00 61 1004.5
20260505032729 69 233 1.7 2.6 0.00 0.00 0.00 60 1004.3
20260505032224 69 196 3.5 3.5 0.00 0.00 0.00 59 1004.2
20260505031722 69 216 3.5 3.5 0.00 0.00 0.00 59 1004.0
20260505031218 69 205 1.7 2.6 0.00 0.00 0.00 59 1004.1
20260505030715 69 199 2.6 2.6 0.00 0.00 0.00 59 1004.2
20260505030211 70 189 3.5 3.5 0.00 0.00 0.00 58 1004.2
20260505025707 70 178 5.2 7.0 0.00 0.00 0.00 57 1003.8
20260505025206 71 202 4.3 5.2 0.00 0.00 0.00 57 1003.8
20260505024703 70 199 4.3 5.2 0.00 0.00 0.00 57 1003.7
20260505024200 70 207 3.5 3.5 0.00 0.00 0.00 57 1003.8
20260505023657 70 223 1.7 2.6 0.00 0.00 0.00 56 1003.8
20260505023155 71 174 2.6 2.6 0.00 0.00 0.00 56 1003.7
20260505022652 71 233 3.5 3.5 0.00 0.00 0.00 56 1003.5
20260505022149 71 216 5.2 5.2 0.00 0.00 0.00 56 1003.6
20260505021645 71 182 1.7 2.6 0.00 0.00 0.00 56 1003.3
20260505021143 71 199 4.3 5.2 0.00 0.00 0.00 56 1003.6
20260505020638 71 189 2.6 3.5 0.00 0.00 0.00 55 1003.4
20260505020134 71 196 3.5 3.5 0.00 0.00 0.00 55 1003.5
20260505015632 71 209 4.3 5.2 0.00 0.00 0.00 55 1003.4
20260505015128 71 205 3.5 3.5 0.00 0.00 0.00 55 1003.2
20260505014625 71 203 1.7 2.6 0.00 0.00 0.00 56 1003.3
20260505014122 71 193 3.5 3.5 0.00 0.00 0.00 54 1003.3
20260505013619 72 177 3.5 3.5 0.00 0.00 0.00 54 1003.4
20260505013117 72 224 1.7 1.7 0.00 0.00 0.00 54 1003.3
20260505012615 73 235 2.6 3.5 0.00 0.00 0.00 53 1003.2
20260505012111 73 211 2.6 2.6 0.00 0.00 0.00 53 1003.1
20260505011607 73 199 5.2 6.1 0.00 0.00 0.00 52 1003.0
20260505011104 73 201 5.2 7.0 0.00 0.00 0.00 52 1003.0
20260505010559 73 239 6.1 7.8 0.00 0.00 0.00 51 1002.8
20260505010056 73 205 4.3 6.1 0.00 0.00 0.00 51 1002.7
20260505005552 73 198 3.5 5.2 0.00 0.00 0.00 51 1002.8
20260505005050 73 198 3.5 3.5 0.00 0.00 0.00 51 1003.0
20260505004547 74 204 5.2 6.1 0.00 0.00 0.00 50 1002.7
20260505004043 74 203 4.3 5.2 0.00 0.00 0.00 51 1002.8
20260505003541 74 204 3.5 3.5 0.00 0.00 0.00 50 1003.1
20260505003038 75 219 3.5 5.2 0.00 0.00 0.00 49 1002.9
20260505002537 75 215 1.7 1.7 0.00 0.00 0.00 50 1002.9
20260505002032 75 182 2.6 5.2 0.00 0.00 0.00 49 1003.0
20260505001529 76 196 3.5 5.2 0.00 0.00 0.00 48 1002.9
20260505001026 76 206 3.5 3.5 0.00 0.00 0.00 48 1002.8
20260505000523 76 181 1.7 2.6 0.00 0.00 0.00 47 1003.1
20260505000021 76 210 4.3 7.0 0.00 0.00 0.00 46 1003.0
20260504235517 76 173 11.3 13.9 0.00 0.00 0.00 46 1003.0
20260504235014 77 237 1.7 2.6 0.00 0.00 0.00 47 1002.9
20260504234511 77 197 8.7 9.6 0.00 0.00 0.00 47 1003.0
20260504234008 77 201 7.0 9.6 0.00 0.00 0.00 45 1003.1
20260504233503 77 283 3.5 6.1 0.00 0.00 0.00 45 1002.9
20260504233000 77 212 5.2 7.0 0.00 0.00 0.00 46 1003.1
20260504232457 77 215 7.8 9.6 0.00 0.00 0.00 45 1003.3
20260504231955 78 184 5.2 6.1 0.00 0.00 0.00 45 1003.4
20260504231451 78 248 6.1 7.8 0.00 0.00 0.00 44 1003.2
20260504230947 78 227 7.0 9.6 0.00 0.00 0.00 45 1003.3
20260504230444 78 198 4.3 7.0 0.00 0.00 0.00 44 1003.3
20260504225943 78 347 8.7 12.2 0.00 0.00 0.00 44 1003.3
20260504225439 78 199 7.8 8.7 0.00 0.00 0.00 44 1003.3
20260504224937 78 223 10.4 13.0 0.00 0.00 0.00 43 1003.3
20260504224433 78 188 4.3 6.1 0.00 0.00 0.00 44 1003.4
20260504223930 79 217 2.6 5.2 0.00 0.00 0.00 44 1003.6
20260504223426 79 173 7.0 8.7 0.00 0.00 0.00 43 1003.7
20260504222922 79 213 4.3 7.8 0.00 0.00 0.00 43 1003.7
20260504222420 79 233 6.1 8.7 0.00 0.00 0.00 44 1003.4
20260504221917 79 199 4.3 7.8 0.00 0.00 0.00 42 1003.6
20260504221414 80 191 3.5 5.2 0.00 0.00 0.00 43 1003.5
20260504220911 80 302 6.1 8.7 0.00 0.00 0.00 42 1003.5
20260504220408 79 210 7.0 7.8 0.00 0.00 0.00 43 1003.5
20260504215905 79 193 5.2 7.8 0.00 0.00 0.00 42 1003.5
20260504215401 80 219 7.8 12.2 0.00 0.00 0.00 41 1003.4
20260504214857 79 190 5.2 7.0 0.00 0.00 0.00 42 1003.5
20260504214354 80 280 6.1 7.8 0.00 0.00 0.00 42 1003.5
20260504213851 80 214 7.8 11.3 0.00 0.00 0.00 41 1003.5
20260504213347 80 188 4.3 7.8 0.00 0.00 0.00 41 1003.3
20260504212844 80 283 4.3 5.2 0.00 0.00 0.00 41 1003.5
20260504212340 80 265 7.0 9.6 0.00 0.00 0.00 41 1003.6
20260504211839 80 171 8.7 13.0 0.00 0.00 0.00 41 1003.2
20260504211334 79 237 9.6 11.3 0.00 0.00 0.00 41 1003.3
20260504210832 80 200 10.4 13.0 0.00 0.00 0.00 41 1003.4
20260504210329 80 214 5.2 7.0 0.00 0.00 0.00 41 1003.3
20260504205826 79 204 7.0 11.3 0.00 0.00 0.00 41 1003.4
20260504205323 79 207 10.4 16.5 0.00 0.00 0.00 43 1003.2
20260504204821 80 228 7.8 9.6 0.00 0.00 0.00 43 1003.3
20260504204320 80 209 6.1 9.6 0.00 0.00 0.00 42 1003.3
20260504203819 80 185 11.3 15.6 0.00 0.00 0.00 43 1003.5
20260504203315 80 210 8.7 12.2 0.00 0.00 0.00 43 1003.7
20260504202811 79 245 7.0 8.7 0.00 0.00 0.00 42 1003.9
20260504202309 80 199 12.2 16.5 0.00 0.00 0.00 43 1003.8
20260504201805 79 208 1.7 2.6 0.00 0.00 0.00 43 1003.9
20260504201303 79 267 6.1 9.6 0.00 0.00 0.00 42 1003.8
20260504200800 80 310 9.6 12.2 0.00 0.00 0.00 43 1004.1
20260504200256 79 208 9.6 11.3 0.00 0.00 0.00 42 1003.8
20260504195752 79 188 13.0 14.8 0.00 0.00 0.00 42 1004.0
20260504195248 79 223 9.6 13.0 0.00 0.00 0.00 41 1004.1
20260504194745 79 224 8.7 13.0 0.00 0.00 0.00 42 1004.1
20260504194242 80 195 7.8 15.6 0.00 0.00 0.00 43 1004.2
20260504193738 80 184 7.0 7.8 0.00 0.00 0.00 43 1004.3
20260504193235 80 184 7.0 8.7 0.00 0.00 0.00 40 1004.3
20260504192734 80 227 2.6 3.5 0.00 0.00 0.00 42 1004.3
20260504192231 80 179 9.6 11.3 0.00 0.00 0.00 41 1004.3
20260504191730 79 216 4.3 7.0 0.00 0.00 0.00 43 1004.5
20260504191226 79 245 10.4 20.9 0.00 0.00 0.00 43 1004.4
20260504190721 80 268 5.2 7.0 0.00 0.00 0.00 44 1004.6
20260504190218 80 196 1.7 5.2 0.00 0.00 0.00 44 1004.8
20260504185715 80 217 9.6 13.0 0.00 0.00 0.00 43 1004.5
20260504185212 80 204 6.1 9.6 0.00 0.00 0.00 45 1004.5
20260504184708 80 201 7.8 9.6 0.00 0.00 0.00 47 1004.6
20260504184204 80 213 11.3 13.0 0.00 0.00 0.00 45 1004.7
20260504183700 79 181 2.6 5.2 0.00 0.00 0.00 44 1004.8
20260504183157 79 195 4.3 7.8 0.00 0.00 0.00 45 1004.8
20260504182655 79 238 7.0 9.6 0.00 0.00 0.00 45 1004.8
20260504182152 79 246 7.8 8.7 0.00 0.00 0.00 46 1004.9
20260504181650 79 196 12.2 15.6 0.00 0.00 0.00 43 1005.1
20260504181147 79 201 7.0 8.7 0.00 0.00 0.00 46 1005.3
20260504180646 79 197 7.8 9.6 0.00 0.00 0.00 44 1005.0
20260504180144 79 296 6.1 9.6 0.00 0.00 0.00 45 1005.4
20260504175641 79 189 5.2 11.3 0.00 0.00 0.00 46 1005.3
20260504175137 79 254 3.5 6.1 0.00 0.00 0.00 46 1005.3
20260504174636 78 235 7.8 14.8 0.00 0.00 0.00 47 1005.4
20260504174132 78 273 7.8 8.7 0.00 0.00 0.00 45 1005.6
20260504173629 78 127 6.1 8.7 0.00 0.00 0.00 45 1005.5
20260504173127 78 240 7.8 12.2 0.00 0.00 0.00 48 1005.7
20260504172623 79 215 7.8 13.0 0.00 0.00 0.00 47 1005.9
20260504172120 79 289 6.1 7.8 0.00 0.00 0.00 47 1005.6
20260504171616 78 173 2.6 3.5 0.00 0.00 0.00 49 1005.9
20260504171114 78 294 2.6 5.2 0.00 0.00 0.00 49 1005.8
20260504170609 78 229 5.2 7.0 0.00 0.00 0.00 47 1006.1
20260504170107 77 147 6.1 11.3 0.00 0.00 0.00 48 1005.9
20260504150953 73 201 3.5 7.0 0.00 0.00 0.00 62 1007.2
20260504150450 73 172 5.2 7.0 0.00 0.00 0.00 61 1007.2
20260504140916 69 221 1.7 1.7 0.00 0.00 0.00 69 1007.4
20260504140412 68 202 1.7 2.6 0.00 0.00 0.00 71 1007.3
20260504130337 63 193 5.2 7.0 0.00 0.00 0.00 76 1007.3
20260504120301 62 190 5.2 6.1 0.00 0.00 0.00 74 1007.4
20260504110224 61 206 1.7 1.7 0.00 0.00 0.00 73 1006.7
20260504100148 62 234 1.7 1.7 0.00 0.00 0.00 69 1006.5